Terug naar catalogus

STARLINK-11339

ActiefCommunicatieVLEO
NORAD 61691·PAYLOAD·🇺🇸 United States

Gelanceerd Oct 30, 2024 vanaf Vandenberg Space Force Base

Loading…

Volgende Passages (komende 24 uur)

TLE

VersSource: CelesTrak SupGP

Epoch: Sep 14, 2026, 20:33 UTC

1 61691C 24195E   26257.85673611  .00027680  00000+0  22790-3 0  2575
2 61691  53.1571 173.8018 0001082  88.2835 268.3347 15.69706722    19

Volg STARLINK-11339 in realtime met AllMySat

Download on the App Store